This demonstration page uses our WeatherBlox Daily Observations layout. Learn more.

Left ArrowRight Arrow

40.92945, -100.16068

Hourly Observations for February 28, 2018

Temp ( °F °C ) Dew Point ( °F °C ) Humidity (%) Winds ( mph kmh ) Pressure ( in mb ) Visibility ( mi km ) Precip ( " mm )
12:15 am 00:15 Clear 32 -0.2 28 -2.3 86 86 N 10 17 29.94 1014 10 16.0934 0 0
12:35 am 00:35 Clear 31 -0.5 28 -2.5 87 87 N 14 22 29.91 1013 10 16.0934 0 0
12:55 am 00:55 Clear 31 -0.5 27 -2.6 86 86 N 16 26 29.91 1013 10 16.0934 0 0
1:15 am 01:15 Clear 31 -0.4 27 -2.7 85 85 N 13 20 29.88 1012 10 16.0934 0 0
1:35 am 01:35 Clear 31 -0.5 27 -3 83 83 NNE 7 11 29.88 1012 10 16.0934 0 0
1:55 am 01:55 Clear 30 -1.2 26 -3.4 85 85 NNW 3 6 29.94 1014 10 16.0934 0 0
2:15 am 02:15 Clear 29 -1.7 25 -3.9 85 85 Calm 29.94 1014 10 16.0934 0 0
2:35 am 02:35 Clear 28 -2.1 24 -4.2 86 86 Calm 29.94 1014 10 16.0934 0 0
2:55 am 02:55 Clear 28 -2.3 24 -4.4 86 86 ENE 5 7 29.94 1014 10 16.0934 0 0
3:15 am 03:15 Clear 26 -3.3 23 -5.2 87 87 Calm 29.94 1014 10 16.0934 0 0
3:35 am 03:35 Clear 27 -2.7 24 -4.6 87 87 Calm 29.94 1014 10 16.0934 0 0
3:55 am 03:55 Clear 27 -3 24 -4.6 89 89 NE 3 6 29.91 1013 10 16.0934 0 0
4:15 am 04:15 Clear 27 -2.7 24 -4.5 88 88 Calm 29.94 1014 10 16.0934 0 0
4:35 am 04:35 Clear 27 -2.8 24 -4.5 88 88 N 5 7 29.94 1014 10 16.0934 0 0
4:55 am 04:55 Clear 27 -2.8 24 -4.5 88 88 Calm 29.94 1014 10 16.0934 0 0
5:15 am 05:15 Clear 26 -3.5 22 -5.4 87 87 NNW 6 9 29.94 1014 10 16.0934 0 0
5:35 am 05:35 Clear 26 -3.3 23 -5.1 88 88 N 6 9 29.94 1014 10 16.0934 0 0
5:55 am 05:55 Clear 26 -3.2 23 -5 88 88 N 3 6 29.94 1014 10 16.0934 0 0
6:15 am 06:15 Clear 26 -3.6 22 -5.3 88 88 NNW 8 13 29.94 1014 10 16.0934 0 0
6:35 am 06:35 Clear 26 -3.6 22 -5.5 87 87 NNW 5 7 29.94 1014 10 16.0934 0 0
6:55 am 06:55 Clear 25 -4.1 22 -5.7 89 89 N 5 7 29.97 1015 10 16.0934 0 0
7:15 am 07:15 Sunny 25 -3.7 22 -5.4 88 88 N 8 13 29.94 1014 10 16.0934 0 0
7:35 am 07:35 Sunny 26 -3.6 22 -5.3 88 88 NNW 9 15 29.94 1014 10 16.0934 0 0
7:55 am 07:55 Sunny 27 -3 23 -4.9 87 87 N 9 15 29.94 1014 10 16.0934 0 0
8:15 am 08:15 Sunny 28 -2.2 24 -4.5 84 84 N 6 9 29.94 1014 10 16.0934 0 0
8:35 am 08:35 Sunny 29 -1.4 25 -4 83 83 N 10 17 29.97 1015 10 16.0934 0 0
8:55 am 08:55 Sunny 31 -0.3 26 -3.4 80 80 N 9 15 29.94 1014 10 16.0934 0 0
9:15 am 09:15 Sunny 32 0.2 27 -2.6 82 82 N 13 20 29.94 1014 10 16.0934 0 0
9:35 am 09:35 Sunny 33 0.6 28 -2.3 81 81 N 14 22 29.94 1014 10 16.0934 0 0
9:55 am 09:55 Sunny 34 1.1 28 -2.1 79 79 N 17 28 29.94 1014 10 16.0934 0 0
10:15 am 10:15 Sunny 35 1.7 28 -2 77 77 N 15 24 29.94 1014 10 16.0934 0 0
10:35 am 10:35 Sunny 36 2.2 28 -2.3 72 72 NNE 14 22 29.97 1015 10 16.0934 0 0
10:55 am 10:55 Sunny 37 2.7 29 -1.9 72 72 N 12 19 29.94 1014 10 16.0934 0 0
11:15 am 11:15 Sunny 38 3.2 28 -2 69 69 N 12 19 29.94 1014 10 16.0934 0 0
11:35 am 11:35 Sunny 38 3.4 29 -1.7 70 70 N 13 20 29.94 1014 10 16.0934 0 0
11:55 am 11:55 Sunny 40 4.6 30 -1.3 66 66 N 14 22 29.94 1014 10 16.0934 0 0
12:15 pm 12:15 Sunny 40 4.7 29 -1.6 64 64 N 15 24 29.94 1014 10 16.0934 0 0
12:35 pm 12:35 Sunny 42 5.3 29 -1.4 62 62 N 17 28 29.94 1014 10 16.0934 0 0
12:55 pm 12:55 Sunny 42 5.4 29 -1.6 61 61 N 18 30 29.88 1012 10 16.0934 0 0
1:15 pm 13:15 Sunny 43 5.9 30 -1.3 60 60 N 15 24 29.88 1012 10 16.0934 0 0
1:35 pm 13:35 Sunny 44 6.4 29 -1.4 58 58 N 16 26 29.88 1012 10 16.0934 0 0
1:55 pm 13:55 Sunny 44 6.5 27 -2.8 52 52 N 20 31 29.88 1012 10 16.0934 0 0
2:15 pm 14:15 Sunny 45 7 27 -3 49 49 N 18 30 29.88 1012 10 16.0934 0 0
2:35 pm 14:35 Sunny 44 6.6 26 -3.2 50 50 N 17 28 29.88 1012 10 16.0934 0 0
2:55 pm 14:55 Sunny 43 6.2 27 -2.7 53 53 N 16 26 29.88 1012 10 16.0934 0 0
3:15 pm 15:15 Sunny 43 6.2 27 -2.6 54 54 N 17 28 29.88 1012 10 16.0934 0 0
3:35 pm 15:35 Sunny 43 6.3 28 -2.4 54 54 N 16 26 29.88 1012 10 16.0934 0 0
3:55 pm 15:55 Sunny 43 6.1 27 -2.7 54 54 N 16 26 29.91 1013 10 16.0934 0 0
4:15 pm 16:15 Sunny 42 5.8 27 -2.7 55 55 N 15 24 29.91 1013 10 16.0934 0 0
4:35 pm 16:35 Sunny 43 6.2 28 -2.2 55 55 N 18 30 29.91 1013 10 16.0934 0 0
4:55 pm 16:55 Sunny 42 5.8 27 -2.6 55 55 N 17 28 29.91 1013 10 16.0934 0 0
5:15 pm 17:15 Sunny 40 4.5 27 -2.6 60 60 N 16 26 29.97 1015 10 16.0934 0 0
5:35 pm 17:35 Sunny 39 4 25 -3.8 57 57 NNE 18 30 29.97 1015 10 16.0934 0 0
6:15 pm 18:15 Partly Cloudy 38 3.2 24 -4.5 57 57 N 13 20 30 1016 10 16.0934 0 0
6:35 pm 18:35 Partly Cloudy 37 2.5 24 -4.5 60 60 N 12 19 30.06 1018 10 16.0934 0 0
6:55 pm 18:55 Clear 35 1.7 25 -3.9 67 67 N 8 13 30.06 1018 10 16.0934 0 0
7:15 pm 19:15 Clear 35 1.6 25 -3.8 68 68 N 9 15 30.09 1019 10 16.0934 0 0
7:35 pm 19:35 Clear 34 1.1 25 -4 69 69 N 9 15 30.09 1019 10 16.0934 0 0
7:55 pm 19:55 Clear 34 1 25 -4.1 69 69 N 7 11 30.09 1019 10 16.0934 0 0
8:15 pm 20:15 Clear 32 0.2 25 -4.1 73 73 NNW 7 11 30.15 1021 10 16.0934 0 0
8:35 pm 20:35 Partly Cloudy 31 -0.5 24 -4.2 76 76 NNW 6 9 30.15 1021 10 16.0934 0 0
8:55 pm 20:55 Clear 31 -0.7 24 -4.5 76 76 NW 7 11 30.15 1021 10 16.0934 0 0
9:15 pm 21:15 Clear 30 -1.1 24 -4.5 78 78 NW 7 11 30.15 1021 10 16.0934 0 0
9:35 pm 21:35 Clear 30 -1 24 -4.6 77 77 NW 5 7 30.15 1021 10 16.0934 0 0
9:55 pm 21:55 Clear 30 -1.3 24 -4.7 78 78 NW 6 9 30.15 1021 10 16.0934 0 0
10:15 pm 22:15 Clear 29 -1.5 24 -4.6 80 80 NW 5 7 30.15 1021 10 16.0934 0 0
10:35 pm 22:35 Clear 28 -2.4 23 -5 83 83 NW 7 11 30.18 1022 10 16.0934 0 0
10:55 pm 22:55 Clear 28 -2.2 23 -4.8 83 83 NW 7 11 30.18 1022 10 16.0934 0 0
11:15 pm 23:15 Clear 29 -1.7 24 -4.5 81 81 NNW 7 11 30.15 1021 10 16.0934 0 0
11:35 pm 23:35 Clear 28 -2 23 -5 80 80 NW 7 11 30.18 1022 10 16.0934 0 0
11:55 pm 23:55 Clear 28 -2 23 -4.8 81 81 NW 9 15 30.21 1023 10 16.0934 0 0

Powered by AerisWeather